Tracking 20621 objects as of 31-Mar-2020
HD Live streaming from Space Station
objects crossing your sky now

NSL-1

Track NSL-1 now!
10-day predictions


NORAD ID: 44391
Int'l Code: 2019-038E
Perigee: 567.9 km
Apogee: 599.0 km
Inclination: 97.7 °
Period: 96.2 minutes
Semi major axis: 6954 km
RCS: Unknown
Launch date: July 5, 2019
Source: Israel (ISRA)
Launch site: VOSTOCHNY COSMODROME (VOSTO)
aabbcc
Your satellite tracking list
Your tracking list is empty




NASA's NSSDC Master Catalog

Two Line Element Set (TLE):
1 44391U 19038E   20090.85437348 +.00001141 +00000-0 +10391-3 0  9999
2 44391 097.7207 053.7725 0022394 057.3732 302.9646 14.96952809040233
Source of the keplerian elements: AFSPC